Flag for Germany Weather past 2 weeks in Titisee-Neustadt, Baden-Württemberg, Germany

Now
50 °F

Scattered clouds.


Feels Like: 49 °F
Forecast: 22 / 44 °F
Wind: 5 mph from West

Location: Freiburg

Current Time: Mar 27, 2015 at 2:21:51 PM

Latest Report: Mar 27, 2015 at 12:00 PM


Visibility: 25 mi

Pressure: 30.16 "Hg

Humidity: 51%

Dew point: 32 °F

Location of Titisee-NeustadtLocation

Historic Weather in Titisee-Neustadt — Graph

°F

Titisee-Neustadt temperature yesterday

Maximum temperature yesterday: 47 °F (at 5:00 PM)
Minimum temperature yesterday: 41 °F (at 3:00 AM)
Average temperature yesterday: 44 °F

Past Weeks' High & Low Weather Summary

 TemperatureHumidityPressure
High64 °F (Mar 24, 5:00 PM)100% (Mar 20, 5:00 AM)30.37 "Hg (Mar 20, 5:00 AM)
Low27 °F (Mar 15, 6:00 AM)32% (Mar 12, 3:00 PM)29.64 "Hg (Mar 25, 12:00 PM)
Average44 °F72%30.08 "Hg
* Reported Mar 12 12:00 Noon — Mar 27 12:00 Noon, Titisee-Neustadt, Weather by CustomWeather, © 2015

Note: Actual official high and low records may vary slightly from our data, if they occured in-between our weather recording intervals... More about our weather records

Advertising

Titisee-Neustadt weather history for previous 24 hours

 ConditionsComfort  
Time TempWeatherWind HumidityBarometerVisibility
12:00 PM
Fri, Mar 27
50 °FScattered clouds.5 mph51%30.16 "Hg25 mi
11:00 AM48 °FOvercast.5 mph66%30.16 "Hg19 mi
9:00 AM46 °FOvercast.3 mph76%30.12 "Hg25 mi
8:00 AM44 °FPartly sunny.3 mph83%30.10 "Hg17 mi
6:00 AM42 °FOvercast.5 mph86%30.04 "Hg10 mi
5:00 AM42 °FLight rain. Overcast.7 mph87%30.03 "Hg4 mi
3:00 AM43 °FOvercast.6 mph81%29.98 "Hg12 mi
2:00 AM43 °FOvercast.8 mph81%29.99 "Hg12 mi
12:00 AM42 °FDrizzle. Overcast.7 mph82%29.96 "Hg8 mi
11:00 PM
Thu, Mar 26
44 °FLight freezing rain. Overcast.7 mph75%29.95 "Hg6 mi
10:00 PM44 °FOvercast.7 mph69%29.93 "Hg16 mi
9:00 PM43 °FLight rain. Haze.7 mph82%29.92 "Hg11 mi
8:00 PM44 °FLight rain. Overcast.6 mph76%29.91 "Hg7 mi
6:00 PM46 °FOvercast.6 mph65%29.87 "Hg14 mi
5:00 PM47 °FOvercast.7 mph69%29.86 "Hg12 mi
3:00 PM46 °FOvercast.6 mph72%29.86 "Hg9 mi
2:00 PM47 °FOvercast.5 mph74%29.86 "Hg9 mi
Weather by CustomWeather, © 2015

See weather overviewHow to use our weather pages